Change the Weather History Date:

Sunday, November 25, 2012

  Actual Average Record
Temperature  
Mean Temperature 47 °F -  
Max Temperature 64 °F 66 °F 80 °F (2010)
Min Temperature 30 °F 46 °F 30 °F (2012)
Degree Days  
Heating Degree Days 18    
Moisture  
Dew Point 31 °F    
Average Humidity 65    
Maximum Humidity 97    
Minimum Humidity 23    
Precipitation  
Precipitation 0.00 in - - ()
Sea Level Pressure  
Sea Level Pressure 30.14 in    
Wind  
Wind Speed 2 mph (SSE)    
Max Wind Speed 7 mph    
Max Gust Speed -    
Visibility 9 miles    
Events Rain    
Averages and records for this station are not official NWS values.
T = Trace of Precipitation, MM = Missing Value Source: NWS Daily Summary

Daily Weather History Graph

Daily Weather History Graph

Search for Another Location

Airport or City:

Trip Planner

Search our weather history database for the weather conditions in past years. The results will help you decide how hot, cold, wet, or windy it might be!

Date:

Astronomy

Nov. 25, 2012 Rise Set
Actual Time 6:23 AM CST 4:46 PM CST
Civil Twilight 5:57 AM CST 5:12 PM CST
Nautical Twilight 5:27 AM CST 5:42 PM CST
Astronomical Twilight 4:58 AM CST 6:11 PM CST
Moon 2:57 PM CST (11/25) 3:44 AM CST (11/25)
Length of Visible Light 11h 15m
Length of Day
10h 23m
Waxing Gibbous, 93% of the Moon is Illuminated
Nov 25
Waxing Gibbous
Nov 28
Full
Dec 6
Last Quarter
Dec 13
New
Dec 19
First Quarter

Hourly Weather History & Observations

Time (CST) Temp. Windchill Dew Point Humidity Pressure Visibility Wind Dir Wind Speed Gust Speed Precip Events Conditions
12:56 AM 34.0 °F - 28.0 °F 79% 30.13 in 10.0 mi Calm Calm - N/A   Clear
1:56 AM 33.1 °F 30.0 °F 28.9 °F 85% 30.13 in 4.0 mi NW 3.5 mph - N/A   Clear
2:56 AM 30.9 °F - 28.0 °F 89% 30.14 in 6.0 mi Calm Calm - N/A   Clear
3:56 AM 30.0 °F - 27.0 °F 88% 30.14 in 6.0 mi Calm Calm - 0.00 in   Clear
4:56 AM 32.0 °F 28.7 °F 28.0 °F 85% 30.14 in 10.0 mi North 3.5 mph - 0.00 in   Clear
5:56 AM 32.0 °F 28.7 °F 28.0 °F 85% 30.16 in 10.0 mi North 3.5 mph - N/A   Clear
6:56 AM 30.9 °F - 28.9 °F 92% 30.19 in 10.0 mi Calm Calm - N/A   Clear
7:56 AM 43.0 °F 40.3 °F 30.0 °F 60% 30.21 in 10.0 mi East 4.6 mph - 0.00 in Rain Light Rain
8:56 AM 48.0 °F - 27.0 °F 44% 30.22 in 10.0 mi ESE 5.8 mph - 0.00 in   Clear
9:56 AM 53.1 °F - 26.1 °F 35% 30.21 in 10.0 mi SE 5.8 mph - N/A   Clear
10:56 AM 57.0 °F - 24.1 °F 28% 30.19 in 10.0 mi SSE 4.6 mph - N/A   Clear
11:56 AM 60.1 °F - 24.1 °F 25% 30.14 in 10.0 mi ENE 3.5 mph - N/A   Clear
12:56 PM 62.1 °F - 24.1 °F 23% 30.12 in 10.0 mi Calm Calm - 0.00 in   Clear
1:56 PM 64.0 °F - 25.0 °F 23% 30.11 in 10.0 mi Variable 3.5 mph - 0.00 in   Clear
2:56 PM 64.0 °F - 30.0 °F 28% 30.10 in 10.0 mi SSW 6.9 mph - N/A   Clear
3:56 PM 61.0 °F - 28.0 °F 29% 30.10 in 10.0 mi South 5.8 mph - N/A   Clear
4:56 PM 53.1 °F - 35.1 °F 50% 30.10 in 10.0 mi SSW 4.6 mph - N/A   Clear
5:56 PM 51.1 °F - 37.0 °F 59% 30.11 in 10.0 mi SSW 4.6 mph - N/A   Clear
6:56 PM 46.9 °F - 39.9 °F 77% 30.13 in 10.0 mi SW 5.8 mph - N/A   Clear
7:56 PM 46.9 °F - 42.1 °F 83% 30.13 in 10.0 mi SSW 3.5 mph - N/A   Clear
8:56 PM 41.0 °F - 39.9 °F 96% 30.13 in 10.0 mi Calm Calm - N/A   Clear
9:56 PM 39.0 °F - 37.9 °F 96% 30.13 in 9.0 mi Calm Calm - N/A   Clear
10:56 PM 39.0 °F - 37.9 °F 96% 30.12 in 10.0 mi Calm Calm - 0.00 in   Clear
11:56 PM 37.9 °F - 37.0 °F 97% 30.12 in 8.0 mi Calm Calm - 0.00 in   Clear